Weather History for Henderson, TX

Change the Weather History Date:

Thursday, March 21, 2013

  Actual Average (KGGG) Record (KGGG)
Temperature  
Mean Temperature 55 °F 59 °F  
Max Temperature 67 °F 70 °F 87 °F (1907)
Min Temperature 44 °F 47 °F 25 °F (1965)
Degree Days  
Heating Degree Days 10 7  
Month to date heating degree days 192  
Since 1 July heating degree days 2096  
Cooling Degree Days 0 1  
Month to date cooling degree days 21  
Year to date cooling degree days 33  
Growing Degree Days 5 (Base 50)    
Moisture  
Dew Point 37 °F    
Average Humidity 50    
Maximum Humidity 81    
Minimum Humidity 26    
Precipitation  
Precipitation 0.01 in 0.15 in 2.27 in (1955)
Month to date precipitation 2.96  
Year to date precipitation 10.32  
Snow  
Snow 0.00 in - - ()
Month to date snowfall  
Since 1 July snowfall  
Snow Depth -    
Sea Level Pressure  
Sea Level Pressure 29.87 in    
Wind  
Wind Speed 6 mph (SE)    
Max Wind Speed 20 mph    
Max Gust Speed 26 mph    
Visibility 10 miles    
Events Rain    
T = Trace of Precipitation, MM = Missing Value Source: NWS Daily Summary

Daily Weather History Graph

Daily Weather History Graph

Search for Another Location

Airport:

Trip Planner

Search our weather history database for the weather conditions in past years. The results will help you decide how hot, cold, wet, or windy it might be!

Date:

Astronomy

Mar. 21, 2013 Rise Set
Actual Time 7:21 AM CDT 7:31 PM CDT
Civil Twilight 6:57 AM CDT 7:56 PM CDT
Nautical Twilight 6:28 AM CDT 8:24 PM CDT
Astronomical Twilight 5:59 AM CDT 8:53 PM CDT
Moon 2:18 PM CDT (3/21) 3:26 AM CDT (3/21)
Length of Visible Light 12h 59m
Length of Day
12h 10m
Waxing Gibbous, 69% of the Moon is Illuminated
Mar 21
Waxing Gibbous
Mar 27
Full
Apr 2
Last Quarter
Apr 10
New
Apr 18
First Quarter

Hourly Weather History & Observations

Time (CDT) Temp. Dew Point Humidity Pressure Visibility Wind Dir Wind Speed Gust Speed Precip Events Conditions
12:15 AM 45.9 °F 37.0 °F 71% 30.06 in 10.0 mi Calm Calm - N/A   Clear
12:35 AM 46.4 °F 37.6 °F 71% 30.04 in 10.0 mi Calm Calm - N/A   Clear
12:55 AM 45.0 °F 36.0 °F 71% 30.04 in 10.0 mi Calm Calm - N/A   Clear
1:15 AM 45.5 °F 36.3 °F 70% 30.03 in 10.0 mi Calm Calm - N/A   Clear
1:35 AM 44.6 °F 35.4 °F 70% 30.04 in 10.0 mi Calm Calm - N/A   Clear
1:55 AM 44.8 °F 36.0 °F 71% 30.04 in 10.0 mi Calm Calm - N/A   Clear
2:15 AM 44.4 °F 36.5 °F 74% 30.04 in 10.0 mi Calm Calm - N/A   Clear
2:35 AM 45.1 °F 35.8 °F 70% 30.03 in 10.0 mi Calm Calm - N/A   Clear
2:55 AM 45.1 °F 37.0 °F 73% 30.03 in 10.0 mi Calm Calm - N/A   Clear
3:15 AM 45.1 °F 37.2 °F 74% 30.03 in 10.0 mi Calm Calm - N/A   Clear
3:35 AM 45.3 °F 39.9 °F 81% 30.02 in 10.0 mi Calm Calm - N/A   Clear
3:55 AM 47.3 °F 34.9 °F 62% 30.01 in 10.0 mi East 3.5 mph - N/A   Clear
4:15 AM 48.7 °F 30.9 °F 50% 30.01 in 10.0 mi East 3.5 mph - N/A   Clear
4:35 AM 49.3 °F 29.3 °F 46% 30.00 in 10.0 mi East 8.1 mph - N/A   Clear
4:55 AM 49.6 °F 28.2 °F 44% 29.99 in 10.0 mi East 8.1 mph - N/A   Clear
5:15 AM 49.3 °F 28.2 °F 44% 29.98 in 10.0 mi East 8.1 mph - N/A   Clear
5:35 AM 49.1 °F 28.9 °F 46% 29.98 in 10.0 mi East 6.9 mph - 0.01 in   Clear
5:55 AM 48.6 °F 29.3 °F 47% 29.98 in 10.0 mi East 8.1 mph - 0.01 in   Clear
6:15 AM 48.6 °F 29.3 °F 47% 29.97 in 10.0 mi East 6.9 mph - N/A   Clear
6:35 AM 48.9 °F 28.8 °F 46% 29.98 in 10.0 mi East 4.6 mph - N/A   Clear
6:55 AM 48.6 °F 28.6 °F 46% 29.98 in 10.0 mi East 6.9 mph - N/A   Clear
7:15 AM 48.2 °F 29.1 °F 48% 29.99 in 10.0 mi East 5.8 mph - N/A   Clear
7:35 AM 47.7 °F 30.2 °F 51% 29.99 in 10.0 mi East 6.9 mph - N/A   Scattered Clouds
7:55 AM 47.8 °F 30.4 °F 51% 29.98 in 10.0 mi East 5.8 mph - N/A   Mostly Cloudy
8:15 AM 48.4 °F 30.9 °F 51% 29.98 in 10.0 mi East 8.1 mph - N/A   Mostly Cloudy
8:35 AM 48.7 °F 31.1 °F 51% 29.98 in 10.0 mi East 8.1 mph - N/A   Scattered Clouds
8:55 AM 49.3 °F 31.3 °F 50% 29.99 in 10.0 mi ESE 8.1 mph - N/A   Mostly Cloudy
9:15 AM 50.2 °F 31.5 °F 49% 29.99 in 10.0 mi East 6.9 mph - N/A   Mostly Cloudy
9:35 AM 52.0 °F 31.1 °F 45% 29.99 in 10.0 mi East 6.9 mph - N/A   Scattered Clouds
9:55 AM 51.8 °F 30.9 °F 45% 29.99 in 10.0 mi ESE 5.8 mph - N/A   Mostly Cloudy
10:15 AM 51.4 °F 31.8 °F 47% 30.00 in 10.0 mi ESE 6.9 mph - N/A   Overcast
10:35 AM 52.2 °F 31.6 °F 46% 29.98 in 10.0 mi ESE 10.4 mph - N/A   Mostly Cloudy
10:55 AM 50.0 °F 35.2 °F 57% 29.97 in 10.0 mi ESE 9.2 mph - N/A Rain Light Rain
11:15 AM 52.0 °F 35.6 °F 54% 29.95 in 10.0 mi ESE 9.2 mph - N/A   Overcast
11:35 AM 55.2 °F 34.0 °F 45% 29.94 in 10.0 mi ESE 9.2 mph 16.1 mph N/A   Overcast
11:55 AM 57.2 °F 32.7 °F 40% 29.93 in 10.0 mi ESE 11.5 mph - N/A   Scattered Clouds
12:15 PM 58.8 °F 31.5 °F 36% 29.91 in 10.0 mi SE 11.5 mph 19.6 mph N/A   Clear
12:35 PM 61.2 °F 30.7 °F 32% 29.90 in 10.0 mi SE 13.8 mph 17.3 mph N/A   Scattered Clouds
12:55 PM 61.9 °F 29.5 °F 29% 29.88 in 10.0 mi SE 18.4 mph - N/A   Scattered Clouds
1:15 PM 63.7 °F 30.9 °F 29% 29.87 in 10.0 mi SSE 12.7 mph 20.7 mph N/A   Clear
1:35 PM 64.2 °F 31.3 °F 29% 29.85 in 10.0 mi SE 12.7 mph 19.6 mph N/A   Clear
1:55 PM 65.5 °F 29.5 °F 26% 29.83 in 10.0 mi SSE 15.0 mph 26.5 mph N/A   Clear
2:15 PM 63.3 °F 30.9 °F 30% 29.82 in 10.0 mi SSE 19.6 mph 24.2 mph N/A   Mostly Cloudy
2:35 PM 65.1 °F 32.7 °F 30% 29.80 in 10.0 mi SSE 17.3 mph 24.2 mph N/A   Mostly Cloudy
2:55 PM 66.4 °F 33.6 °F 30% 29.78 in 10.0 mi SSE 12.7 mph 25.3 mph N/A   Scattered Clouds
3:15 PM 65.5 °F 35.1 °F 32% 29.77 in 10.0 mi SSE 11.5 mph 20.7 mph N/A   Mostly Cloudy
3:35 PM 66.4 °F 35.8 °F 32% 29.74 in 10.0 mi SSE 12.7 mph 21.9 mph N/A   Overcast
3:55 PM 66.2 °F 36.7 °F 34% 29.74 in 10.0 mi SE 15.0 mph - N/A   Overcast
4:15 PM 66.4 °F 37.6 °F 35% 29.74 in 10.0 mi SSE 13.8 mph 18.4 mph N/A   Overcast
4:35 PM 66.4 °F 38.3 °F 36% 29.72 in 10.0 mi SSE 10.4 mph 17.3 mph N/A   Overcast
4:55 PM 66.2 °F 38.3 °F 36% 29.72 in 10.0 mi SE 10.4 mph 16.1 mph N/A   Overcast
5:15 PM 65.7 °F 39.2 °F 38% 29.71 in 10.0 mi SE 8.1 mph - N/A   Overcast
5:35 PM 65.5 °F 39.7 °F 39% 29.69 in 10.0 mi SE 9.2 mph - N/A   Overcast
5:55 PM 64.9 °F 40.3 °F 40% 29.69 in 10.0 mi ESE 6.9 mph - N/A   Overcast
6:15 PM 64.4 °F 40.8 °F 42% 29.69 in 10.0 mi ESE 6.9 mph - N/A   Overcast
6:35 PM 64.9 °F 43.7 °F 46% 29.68 in 10.0 mi SSE 10.4 mph - N/A   Overcast
6:55 PM 65.8 °F 46.6 °F 50% 29.68 in 10.0 mi SSE 9.2 mph 18.4 mph N/A   Overcast
7:15 PM 65.5 °F 47.1 °F 51% 29.68 in 10.0 mi SSE 11.5 mph 17.3 mph N/A   Overcast
7:35 PM 64.9 °F 47.7 °F 54% 29.68 in 10.0 mi South 13.8 mph 17.3 mph N/A   Overcast
7:55 PM 64.6 °F 48.2 °F 55% 29.70 in 10.0 mi South 11.5 mph 18.4 mph N/A   Overcast
8:15 PM 64.4 °F 48.2 °F 56% 29.70 in 10.0 mi SSE 10.4 mph 17.3 mph N/A   Overcast
8:35 PM 64.4 °F 48.6 °F 56% 29.71 in 10.0 mi SSE 11.5 mph 20.7 mph N/A   Overcast
8:55 PM 63.9 °F 48.7 °F 58% 29.72 in 10.0 mi SSE 11.5 mph 17.3 mph N/A   Overcast
9:15 PM 63.7 °F 49.1 °F 59% 29.73 in 10.0 mi SSE 11.5 mph 18.4 mph N/A   Overcast
9:35 PM 63.5 °F 49.5 °F 60% 29.73 in 10.0 mi SSE 12.7 mph 18.4 mph N/A   Overcast
9:55 PM 63.1 °F 49.6 °F 61% 29.72 in 10.0 mi SSE 12.7 mph 20.7 mph N/A   Overcast
10:15 PM 62.8 °F 50.0 °F 63% 29.71 in 10.0 mi SSE 15.0 mph 19.6 mph N/A   Overcast
10:35 PM 62.6 °F 50.4 °F 64% 29.71 in 10.0 mi SSE 11.5 mph 20.7 mph N/A   Overcast
10:55 PM 62.4 °F 50.4 °F 65% 29.70 in 10.0 mi SSE 15.0 mph 24.2 mph N/A   Overcast
11:15 PM 62.2 °F 50.4 °F 65% 29.69 in 10.0 mi SSE 12.7 mph 25.3 mph N/A   Overcast
11:35 PM 61.9 °F 50.4 °F 66% 29.69 in 10.0 mi SSE 16.1 mph 24.2 mph N/A   Overcast
11:55 PM 61.7 °F 50.4 °F 66% 29.69 in 10.0 mi SSE 11.5 mph 21.9 mph N/A   Overcast